Beatrice, NE

9:08 AM CDT on October 18, 2017 (GMT -0500)
Beatrice Municipal

Weather History for KBIE - October, 2013

Change the Weather History Date:

Tuesday, October 29, 2013

  Actual Average Record
Temperature  
Mean Temperature 51 °F -  
Max Temperature 56 °F 60 °F 80 °F (2016)
Min Temperature 46 °F 37 °F 22 °F (1980)
Degree Days  
Heating Degree Days 14    
Growing Degree Days 1 (Base 50)    
Moisture  
Dew Point 52 °F    
Average Humidity 98    
Maximum Humidity 100    
Minimum Humidity 90    
Precipitation  
Precipitation 0.29 in - - ()
Sea Level Pressure  
Sea Level Pressure 29.98 in    
Wind  
Wind Speed 7 mph (ENE)    
Max Wind Speed 12 mph    
Max Gust Speed -    
Visibility 3 miles    
Events Fog , Rain , Thunderstorm    
Averages and records for this station are not official NWS values.
T = Trace of Precipitation, MM = Missing Value Source: NWS Daily Summary

Daily Weather History Graph

Daily Weather History Graph

Search for Another Location

Airport or City:

Trip Planner

Search our weather history database for the weather conditions in past years. The results will help you decide how hot, cold, wet, or windy it might be!

Date:

Astronomy

Oct. 29, 2013 Rise Set
Actual Time 7:53 AM CDT 6:27 PM CDT
Civil Twilight 7:25 AM CDT 6:55 PM CDT
Nautical Twilight 6:53 AM CDT 7:27 PM CDT
Astronomical Twilight 6:21 AM CDT 7:58 PM CDT
Moon 2:44 AM CDT (10/29) 3:42 PM CDT (10/29)
Length of Visible Light 11h 29m
Length of Day
10h 33m
Waning Crescent, 25% of the Moon is Illuminated
Oct 29
Waning Crescent
Nov 3
New
Nov 9
First Quarter
Nov 17
Full
Nov 25
Last Quarter

Hourly Weather History & Observations

Time (CDT) Temp. Windchill Dew Point Humidity Pressure Visibility Wind Dir Wind Speed Gust Speed Precip Events Conditions
12:15 AM 47.5 °F - 44.6 °F 90% 30.10 in 7.0 mi ENE 4.6 mph - 0.02 in Rain , Thunderstorm Light Thunderstorms and Rain
12:35 AM 47.3 °F - 45.3 °F 93% 30.11 in 10.0 mi North 8.1 mph - 0.04 in Rain , Thunderstorm Light Thunderstorms and Rain
12:55 AM 46.4 °F 42.4 °F 44.6 °F 93% 30.10 in 5.0 mi ENE 8.1 mph - 0.08 in Rain Rain
1:15 AM 46.4 °F 41.1 °F 44.6 °F 93% 30.09 in 7.0 mi NE 11.5 mph - 0.03 in Rain , Thunderstorm Light Thunderstorms and Rain
1:35 AM 47.3 °F - 45.7 °F 94% 30.10 in 5.0 mi ENE 4.6 mph - 0.07 in Rain , Thunderstorm Heavy Thunderstorms and Rain
1:55 AM 46.9 °F - 45.7 °F 95% 30.09 in 5.0 mi ENE 8.1 mph - 0.11 in Rain Rain
2:15 AM 47.5 °F - 45.9 °F 94% 30.08 in 5.0 mi ENE 9.2 mph - N/A   Light Drizzle
2:35 AM 47.5 °F - 46.2 °F 95% 30.07 in 5.0 mi East 5.8 mph - 0.02 in Rain Light Rain
2:55 AM 48.9 °F - 47.1 °F 93% 30.06 in 7.0 mi ENE 5.8 mph - 0.02 in Rain Light Rain
3:15 AM 47.3 °F - 46.0 °F 95% 30.06 in 4.0 mi ENE 8.1 mph - 0.05 in Rain Light Rain
3:35 AM 47.5 °F - 46.0 °F 95% 30.05 in 7.0 mi ENE 9.2 mph - 0.06 in Rain Rain
3:55 AM 46.6 °F - 45.5 °F 96% 30.05 in 5.0 mi ENE 8.1 mph - 0.07 in Rain Light Rain
4:15 AM 46.6 °F - 45.3 °F 95% 30.05 in 5.0 mi NE 6.9 mph - N/A   Light Drizzle
8:55 AM 46.4 °F 41.9 °F 45.5 °F 97% 30.03 in 4.0 mi ENE 9.2 mph - N/A   Overcast
9:35 AM 46.8 °F - 46.2 °F 98% 30.03 in 3.0 mi East 9.2 mph - N/A   Overcast
9:55 AM 47.7 °F - 47.1 °F 98% 30.03 in 3.0 mi East 8.1 mph - N/A   Overcast
10:15 AM 48.2 °F - 47.7 °F 98% 30.02 in 3.0 mi East 9.2 mph - N/A   Overcast
10:35 AM 48.7 °F - 48.2 °F 98% 30.03 in 3.0 mi East 5.8 mph - N/A   Overcast
10:55 AM 49.5 °F - 48.7 °F 97% 30.03 in 4.0 mi East 8.1 mph - N/A   Overcast
11:15 AM 50.0 °F - 49.1 °F 97% 30.03 in 4.0 mi East 6.9 mph - N/A   Overcast
11:35 AM 50.2 °F - 49.6 °F 98% 30.03 in 1.8 mi East 8.1 mph - N/A   Overcast
11:55 AM 50.7 °F - 50.2 °F 98% 30.02 in 1.5 mi East 6.9 mph - N/A   Overcast
12:15 PM 51.1 °F - 50.7 °F 99% 30.01 in 1.8 mi East 8.1 mph - N/A   Overcast
12:35 PM 51.4 °F - 51.1 °F 99% 29.99 in 1.5 mi East 10.4 mph - N/A   Overcast
12:55 PM 51.8 °F - 51.8 °F 100% 29.97 in 0.8 mi East 10.4 mph - N/A   Overcast
1:15 PM 52.2 °F - 52.0 °F 99% 29.97 in 1.8 mi East 9.2 mph - N/A   Overcast
1:35 PM 53.4 °F - 52.7 °F 97% 29.96 in 4.0 mi ESE 6.9 mph - N/A   Overcast
1:55 PM 54.5 °F - 53.8 °F 97% 29.94 in 3.0 mi ESE 8.1 mph - N/A   Overcast
2:15 PM 54.5 °F - 54.0 °F 98% 29.94 in 2.5 mi East 8.1 mph - N/A   Overcast
2:35 PM 54.7 °F - 54.3 °F 99% 29.93 in 2.0 mi East 6.9 mph - N/A   Overcast
2:55 PM 54.9 °F - 54.5 °F 99% 29.93 in 1.2 mi East 6.9 mph - N/A   Overcast
3:15 PM 55.4 °F - 54.9 °F 98% 29.91 in 1.5 mi East 8.1 mph - N/A   Overcast
3:35 PM 55.2 °F - 54.9 °F 99% 29.91 in 1.2 mi East 6.9 mph - N/A   Overcast
3:55 PM 55.4 °F - 54.9 °F 98% 29.92 in 2.0 mi East 5.8 mph - N/A   Overcast
4:15 PM 55.4 °F - 55.2 °F 99% 29.91 in 1.2 mi East 5.8 mph - N/A   Overcast
4:35 PM 55.8 °F - 55.6 °F 99% 29.91 in 1.0 mi East 4.6 mph - N/A   Overcast
4:55 PM 56.1 °F - 55.9 °F 99% 29.91 in 0.8 mi East 4.6 mph - N/A   Overcast
5:15 PM 56.3 °F - 56.3 °F 100% 29.91 in 1.0 mi East 4.6 mph - N/A   Overcast
5:35 PM 56.7 °F - 56.5 °F 99% 29.91 in 0.8 mi East 5.8 mph - 0.01 in   Overcast
5:55 PM 56.7 °F - 56.5 °F 99% 29.90 in 1.0 mi East 5.8 mph - 0.01 in   Overcast
6:15 PM 56.7 °F - 56.5 °F 99% 29.91 in 1.8 mi East 3.5 mph - N/A   Overcast
6:35 PM 56.5 °F - 56.3 °F 99% 29.91 in 1.5 mi East 4.6 mph - N/A   Overcast
6:55 PM 56.3 °F - 56.3 °F 100% 29.91 in 1.5 mi East 4.6 mph - N/A   Overcast
7:15 PM 56.3 °F - 56.3 °F 100% 29.92 in 2.5 mi ENE 5.8 mph - N/A   Overcast
7:35 PM 56.3 °F - 56.3 °F 100% 29.92 in 2.5 mi ENE 4.6 mph - N/A   Overcast
7:55 PM 55.9 °F - 55.9 °F 100% 29.93 in 2.0 mi NE 3.5 mph - N/A   Overcast
8:15 PM 55.6 °F - 55.6 °F 100% 29.92 in 1.2 mi NNE 3.5 mph - N/A   Overcast
8:35 PM 56.3 °F - 56.3 °F 100% 29.92 in 0.8 mi ENE 3.5 mph - N/A   Overcast
8:55 PM 56.3 °F - 56.3 °F 100% 29.93 in 0.5 mi ENE 3.5 mph - N/A Fog Fog
9:15 PM 56.3 °F - 56.3 °F 100% 29.93 in 0.2 mi Calm Calm - N/A Fog Fog
9:35 PM 56.3 °F - 56.3 °F 100% 29.93 in 0.5 mi NNE 3.5 mph - N/A Fog Fog
9:55 PM 55.8 °F - 55.8 °F 100% 29.93 in 0.5 mi NE 4.6 mph - N/A Fog Fog
10:15 PM 55.8 °F - 55.8 °F 100% 29.93 in 0.5 mi NNE 4.6 mph - N/A Fog Fog
10:35 PM 55.8 °F - 55.8 °F 100% 29.94 in 0.2 mi NNE 4.6 mph - N/A Fog Fog
10:55 PM 55.8 °F - 55.8 °F 100% 29.95 in 0.5 mi NNW 4.6 mph - N/A Fog Fog
11:15 PM 55.8 °F - 55.8 °F 100% 29.95 in 0.5 mi North 4.6 mph - N/A Fog Fog
11:35 PM 55.6 °F - 55.6 °F 100% 29.96 in 0.5 mi WNW 4.6 mph - N/A Fog Fog
11:55 PM 53.4 °F - 53.4 °F 100% 29.96 in 0.5 mi WNW 9.2 mph - N/A Fog Fog